Date,TemperatureHighF,TemperatureAvgF,TemperatureLowF,DewpointHighF,DewpointAvgF,DewpointLowF,HumidityHigh,HumidityAvg,HumidityLow,PressureMaxIn,PressureMinIn,WindSpeedMaxMPH,WindSpeedAvgMPH,GustSpeedMaxMPH,PrecipitationSumIn
2013-1-1,50.7,39.4,30.8,29.6,25.4,19.1,74,59,33,30.28,30.12,8,1,8,0.00
2013-1-2,57.7,42.4,30.1,29.3,25.6,21.5,77,54,26,30.16,30.01,7,1,7,0.00
2013-1-3,57.7,43.0,32.7,30.9,27.3,23.9,77,56,31,30.18,30.02,10,1,10,0.00
2013-1-4,54.1,40.6,30.9,32.1,28.8,26.3,87,65,36,30.29,30.18,4,1,7,0.00
2013-1-5,61.2,44.2,28.9,28.0,24.8,19.8,78,50,23,30.36,30.22,7,1,7,0.00
2013-1-6,62.1,47.1,33.2,26.8,20.7,14.2,63,38,16,30.22,29.93,6,0,6,0.00
2013-1-7,56.6,44.3,34.4,29.4,26.5,21.9,68,50,33,29.94,29.80,11,2,11,0.00
2013-1-8,62.7,47.0,35.5,29.0,25.3,17.7,69,45,18,30.10,29.90,8,1,8,0.00
2013-1-9,72.2,53.1,37.9,29.3,19.8,6.3,55,31,9,30.20,30.01,8,1,8,0.00
2013-1-10,67.0,55.2,43.7,37.3,20.7,15.8,67,28,15,30.01,29.73,23,4,23,0.00
2013-1-11,45.4,37.3,31.3,33.4,23.0,10.9,96,59,28,30.04,29.82,14,2,14,0.09
2013-1-12,45.4,34.7,27.7,16.0,10.5,1.7,52,37,19,30.16,30.02,12,2,12,0.00
2013-1-13,45.6,34.3,27.6,14.2,9.6,4.0,48,37,20,30.17,30.04,9,2,9,0.00
2013-1-14,41.6,31.4,24.4,12.4,6.7,2.5,53,36,22,30.30,30.10,12,2,12,0.00
2013-1-15,43.0,32.9,22.3,9.6,2.0,-6.6,56,29,13,30.42,30.28,27,6,27,0.00
2013-1-16,57.6,40.6,27.0,16.2,8.2,2.4,41,28,13,30.43,30.25,7,1,7,0.00
2013-1-17,68.8,49.5,32.8,18.6,15.9,11.2,52,29,11,30.27,30.13,7,1,7,0.00
2013-1-18,71.2,53.0,38.9,22.0,18.7,13.4,43,27,12,30.20,30.07,7,0,7,0.00
2013-1-19,74.0,56.3,39.1,23.5,18.9,13.4,39,24,12,30.21,30.08,8,1,8,0.00
2013-1-20,74.5,57.1,42.0,34.7,27.3,22.0,52,33,18,30.11,29.95,7,0,7,0.00
2013-1-21,77.1,58.8,44.8,34.3,31.0,26.7,59,37,20,30.05,29.94,9,1,9,0.00
2013-1-22,78.3,61.0,45.9,36.7,31.6,25.5,61,35,15,30.11,30.00,11,1,11,0.00
2013-1-23,78.0,62.3,47.2,33.4,29.6,24.5,45,30,17,30.14,30.01,8,1,8,0.00
2013-1-24,66.1,60.3,56.3,53.0,42.7,30.9,78,55,31,30.14,30.05,8,1,8,0.06
2013-1-25,73.1,61.1,51.4,49.3,46.9,43.9,79,61,39,30.11,29.89,8,0,8,0.00
2013-1-26,62.7,57.5,53.9,56.8,52.1,47.5,94,83,63,29.93,29.80,21,1,21,0.72
2013-1-27,62.6,55.8,49.1,51.5,49.1,45.7,94,79,57,29.96,29.85,14,1,14,0.00
2013-1-28,54.5,48.0,41.3,48.9,40.3,30.8,89,75,59,29.99,29.83,19,3,19,0.03
2013-1-29,49.6,41.6,33.8,33.9,26.6,19.5,86,58,31,30.23,29.98,16,2,16,0.01
2013-1-30,55.9,44.6,34.6,27.0,21.3,5.0,64,43,14,30.36,30.22,11,2,11,0.00
2013-1-31,61.2,47.5,36.8,36.3,28.3,22.8,69,49,28,30.28,30.09,6,1,6,0.00
2013-2-1,70.7,53.2,36.5,35.4,27.3,18.5,66,39,14,30.20,30.10,7,1,7,0.00
2013-2-2,73.0,57.8,44.3,32.7,28.3,23.4,50,34,17,30.20,30.06,7,1,7,0.00
2013-2-3,69.2,58.5,50.4,39.9,33.4,25.0,61,40,20,30.08,29.89,10,1,10,0.00
2013-2-4,68.0,56.5,49.2,41.0,38.1,34.2,66,51,34,29.98,29.88,10,1,10,0.00
2013-2-5,71.8,57.7,45.1,43.3,40.3,36.4,77,54,29,29.97,29.85,10,1,10,0.00
2013-2-6,68.4,56.9,48.4,43.7,39.8,34.2,70,55,30,29.98,29.84,15,2,15,0.00
2013-2-7,68.3,56.0,46.5,40.8,38.0,33.5,71,53,31,30.06,29.90,9,1,9,0.00
2013-2-8,65.7,56.1,46.4,35.7,26.3,11.3,66,35,12,29.90,29.71,22,4,22,0.00
2013-2-9,49.6,42.5,33.2,37.4,29.6,24.1,92,62,40,30.05,29.73,17,3,17,0.26
2013-2-10,54.4,43.5,34.4,27.0,24.5,19.6,65,49,27,30.06,29.94,14,1,14,0.00
2013-2-11,47.5,38.5,33.0,35.1,28.9,22.9,94,70,44,30.18,29.97,18,2,18,0.16
2013-2-12,51.1,39.0,30.0,35.0,29.1,21.6,94,70,34,30.32,30.19,12,2,12,0.01
2013-2-13,59.2,44.4,30.2,28.0,23.7,17.5,73,46,25,30.23,30.10,10,1,10,0.00
2013-2-14,64.2,50.0,35.7,30.7,26.5,23.5,63,42,23,30.15,30.01,12,2,12,0.00
2013-2-15,69.8,55.0,42.9,32.6,23.7,12.6,55,33,12,30.20,30.08,18,3,18,0.00
2013-2-16,74.5,57.1,41.5,22.8,13.6,1.1,37,20,6,30.22,29.94,8,1,8,0.00
2013-2-17,71.2,58.5,45.3,25.4,13.3,2.8,36,18,7,29.94,29.78,21,2,21,0.00
2013-2-18,68.7,56.1,46.0,25.5,17.1,5.3,36,23,9,29.99,29.86,9,1,9,0.00
2013-2-19,68.3,57.2,48.1,33.2,16.3,6.5,56,22,10,29.88,29.63,25,5,25,0.00
2013-2-20,48.8,39.4,31.6,38.2,32.3,29.5,92,77,50,29.97,29.61,26,4,26,0.48
2013-2-21,47.4,38.9,30.1,36.4,32.4,27.8,93,78,54,30.10,29.97,9,1,9,0.05
2013-2-22,54.3,43.4,35.0,37.6,30.9,25.3,82,63,40,30.17,30.02,13,1,13,0.00
2013-2-23,62.2,48.2,36.1,28.7,24.8,18.6,63,42,20,30.16,29.84,12,1,12,0.00
2013-2-24,49.2,44.0,34.5,31.4,19.4,6.3,70,40,18,30.10,29.77,19,3,19,0.00
2013-2-25,56.9,45.1,35.4,22.7,17.5,11.7,51,34,22,30.23,30.04,11,2,11,0.00
2013-2-26,61.7,48.4,35.6,19.5,16.0,8.2,43,29,13,30.07,29.95,11,2,11,0.00
2013-2-27,63.2,50.5,40.4,15.5,6.4,0.0,30,17,9,30.20,30.07,16,4,16,0.00
2013-2-28,65.8,51.3,36.1,17.3,12.6,-1.0,38,22,12,30.29,30.17,16,3,16,0.00
2013-3-1,72.6,57.8,39.5,28.1,15.9,-4.2,36,21,9,30.30,30.14,15,3,15,0.00
2013-3-2,79.9,63.2,45.3,31.7,26.6,20.4,44,27,12,30.24,30.03,9,1,9,0.00
2013-3-3,76.3,65.2,52.5,31.7,23.2,12.0,36,21,9,30.04,29.82,16,2,16,0.00
2013-3-4,70.4,62.6,50.8,33.2,27.1,16.8,49,27,17,29.98,29.77,19,2,19,0.00
2013-3-5,76.4,60.8,45.4,35.8,30.7,23.4,57,35,14,30.06,29.90,10,1,10,0.00
2013-3-6,79.0,65.6,53.7,35.3,30.4,24.1,43,28,15,29.95,29.79,16,2,16,0.00
2013-3-7,77.0,63.8,51.3,32.3,26.7,15.4,45,27,10,29.87,29.76,19,3,19,0.00
2013-3-8,62.2,53.8,41.1,50.9,39.1,27.7,88,61,30,29.91,29.64,30,5,30,0.37
2013-3-9,48.3,43.9,38.3,40.1,37.5,35.2,91,79,68,30.10,29.91,13,1,13,0.18
2013-3-10,61.7,51.4,41.4,40.3,35.8,27.0,81,58,29,30.16,30.06,19,3,19,0.00
2013-3-11,70.9,56.0,41.9,37.5,32.7,28.0,75,44,21,30.15,29.97,12,1,12,0.00
2013-3-12,78.5,61.8,47.2,42.6,34.9,29.2,57,39,19,30.04,29.92,11,1,11,0.00
2013-3-13,84.8,68.4,50.0,39.8,30.9,22.3,55,28,12,30.06,29.92,11,1,11,0.00
2013-3-14,88.8,71.6,54.4,35.8,28.5,18.2,39,22,8,30.02,29.88,9,1,9,0.00
2013-3-15,90.5,73.5,58.0,36.2,25.1,-10.1,33,19,2,29.92,29.77,15,1,15,0.00
2013-3-16,85.7,72.2,61.5,33.4,21.8,5.5,28,16,5,29.79,29.60,19,2,19,0.00
2013-3-17,81.3,68.7,60.4,31.9,25.1,13.8,31,20,9,29.81,29.68,24,2,24,0.00
2013-3-18,79.6,66.8,55.9,36.0,26.0,12.0,37,23,9,29.89,29.79,12,1,12,0.00
2013-3-19,69.3,60.1,54.3,38.6,31.5,26.6,44,34,26,29.90,29.82,6,0,6,0.00
2013-3-20,80.5,68.9,56.1,37.2,30.8,25.3,42,25,14,29.95,29.76,13,1,13,0.00
2013-3-21,75.8,67.2,59.7,39.3,33.0,28.9,39,29,20,29.76,29.62,14,2,14,0.00
2013-3-22,77.8,66.9,57.3,38.3,31.0,24.6,43,27,14,29.70,29.58,16,2,16,0.00
2013-3-23,73.7,62.4,51.6,40.1,21.2,-12.8,54,26,3,29.91,29.70,15,1,15,0.00
2013-3-24,75.3,62.0,48.2,13.4,2.2,-17.5,18,10,3,29.93,29.79,11,2,11,0.00
2013-3-25,79.2,65.7,50.8,21.7,15.6,9.0,27,15,7,29.94,29.81,11,2,11,0.00
2013-3-26,84.7,68.7,52.5,27.1,15.6,0.5,30,15,5,29.89,29.72,17,1,17,0.00
2013-3-27,83.8,69.7,53.9,27.2,17.3,10.4,28,14,7,29.87,29.76,18,3,18,0.00
2013-3-28,82.5,69.3,55.3,33.7,19.6,11.1,26,16,8,29.94,29.83,16,2,16,0.00
2013-3-29,84.7,70.3,56.0,33.9,21.5,10.7,33,17,7,29.98,29.87,13,2,13,0.00
2013-3-30,79.7,69.1,60.0,30.6,23.5,14.4,30,18,9,29.95,29.82,13,1,13,0.00
2013-3-31,83.7,69.7,53.8,33.7,26.9,20.1,39,22,11,29.94,29.78,13,2,13,0.00
2013-4-1,80.5,68.2,56.4,37.2,29.3,20.5,40,24,16,29.89,29.76,14,1,14,0.00
2013-4-2,76.6,64.2,52.2,27.2,22.1,14.9,33,21,10,29.87,29.77,14,2,14,0.00
2013-4-3,81.0,67.3,51.0,31.9,27.7,21.1,42,24,12,29.94,29.83,25,1,25,0.00
2013-4-4,87.2,71.2,54.7,32.5,23.2,4.9,38,19,5,29.97,29.79,14,1,14,0.00
2013-4-5,85.3,72.3,58.8,35.2,27.9,22.8,33,20,11,29.85,29.71,18,2,18,0.00
2013-4-6,83.0,71.0,57.1,35.4,27.9,21.8,32,21,12,29.86,29.70,14,1,15,0.00
2013-4-7,83.7,70.8,56.1,37.6,32.1,22.5,43,26,11,29.77,29.61,13,1,13,0.00
2013-4-8,80.3,68.2,43.6,41.2,34.3,25.2,88,31,14,29.62,29.25,36,8,36,0.36
2013-4-9,63.6,53.8,43.0,42.4,33.2,23.1,92,49,24,29.86,29.47,24,4,24,0.02
2013-4-10,67.0,55.6,45.0,34.0,29.0,22.0,55,38,20,29.95,29.85,13,1,13,0.00
2013-4-11,78.3,62.0,46.3,34.2,29.2,21.7,60,32,14,29.95,29.71,14,1,14,0.00
2013-4-12,73.2,65.2,55.7,37.8,27.7,20.7,46,25,15,29.75,29.66,11,1,11,0.00
2013-4-13,83.0,69.5,55.6,35.4,25.7,18.8,37,21,10,29.77,29.61,16,1,16,0.00
2013-4-14,83.0,71.3,60.0,37.7,29.2,21.8,30,22,11,29.67,29.54,20,5,20,0.00
2013-4-15,84.5,72.5,63.1,37.6,30.6,21.1,35,22,11,29.64,29.54,23,7,23,0.00
2013-4-16,82.2,70.9,59.3,38.8,28.8,17.4,37,22,11,29.69,29.55,25,6,25,0.00
2013-4-17,65.8,57.8,50.7,43.0,24.7,8.5,68,31,13,29.96,29.66,20,3,20,0.00
2013-4-18,69.3,57.3,45.0,19.3,11.5,3.2,29,17,8,30.08,29.95,19,4,19,0.00
2013-4-19,79.2,62.7,44.7,14.2,4.3,-11.1,25,11,3,30.10,29.87,17,2,17,0.00
2013-4-20,83.8,68.6,53.1,20.5,11.8,2.8,21,12,5,29.90,29.78,13,2,13,0.00
2013-4-21,87.3,73.1,59.1,30.5,16.3,6.9,26,13,5,29.92,29.79,11,1,11,0.00
2013-4-22,89.9,75.7,60.5,32.9,16.2,-2.2,26,12,3,29.85,29.64,12,2,14,0.00
2013-4-23,86.8,73.8,60.9,31.7,21.0,13.4,28,15,7,29.74,29.64,16,2,16,0.00
2013-4-24,88.3,74.9,59.4,35.6,23.6,1.9,32,17,5,29.78,29.67,19,2,19,0.00
2013-4-25,81.7,71.8,60.2,30.8,25.2,3.5,29,18,6,29.91,29.72,33,4,33,0.00
2013-4-26,86.0,70.3,54.5,37.3,29.2,18.3,45,24,10,30.00,29.89,12,2,12,0.00
2013-4-27,89.7,75.4,60.8,33.6,23.7,11.7,26,16,6,29.96,29.75,15,1,15,0.00
2013-4-28,93.5,78.8,62.7,33.9,14.6,-0.8,26,10,3,29.80,29.61,14,2,14,0.00
2013-4-29,95.2,80.1,64.0,31.7,11.6,-7.5,21,9,2,29.68,29.52,18,1,18,0.00
2013-4-30,94.2,81.0,67.9,22.2,14.9,5.5,15,9,4,29.65,29.52,19,2,19,0.00
2013-5-1,89.5,76.2,63.0,30.1,18.4,-2.2,25,12,3,29.86,29.64,18,2,18,0.00
2013-5-2,90.5,77.0,67.2,26.0,10.8,-3.1,20,9,4,29.98,29.81,27,6,27,0.00
2013-5-3,87.8,72.6,55.9,25.1,13.3,-11.9,27,12,2,29.90,29.67,13,1,13,0.00
2013-5-4,92.0,76.8,61.0,28.7,14.9,1.6,21,11,4,29.70,29.55,19,3,19,0.00
2013-5-5,87.5,77.5,67.2,40.1,25.7,15.4,34,16,8,29.77,29.59,22,6,22,0.00
2013-5-6,82.8,69.3,56.7,51.5,41.5,31.4,77,41,20,29.84,29.74,17,2,17,0.03
2013-5-7,81.9,69.4,57.9,43.4,34.3,16.3,48,30,9,29.87,29.73,21,4,21,0.00
2013-5-8,78.5,68.0,55.4,44.6,38.3,28.4,57,36,18,29.92,29.81,11,1,11,0.00
2013-5-9,65.0,60.6,57.1,41.2,40.4,38.8,55,48,38,29.88,29.86,4,0,4,0.00
2013-5-14,97.2,84.2,70.7,36.6,26.8,16.0,21,13,7,29.81,29.66,3,1,13,0.00
2013-5-15,97.0,83.7,70.7,36.4,31.1,25.9,25,16,8,29.82,29.66,7,2,20,0.00
2013-5-16,97.1,83.0,67.3,33.9,25.2,14.2,24,14,5,29.75,29.58,6,2,19,0.00
2013-5-17,93.4,80.2,67.4,36.6,23.5,7.4,26,14,4,29.73,29.62,7,2,21,0.00
2013-5-18,89.2,77.0,64.1,32.4,25.5,15.4,27,16,7,29.77,29.67,6,2,20,0.00
2013-5-19,70.6,55.2,50.0,50.0,47.2,32.0,50,47,24,29.77,29.65,0,0,5,0.00
2013-5-20,91.3,75.5,50.0,50.0,28.6,16.6,50,20,8,29.80,29.42,28,4,28,0.00
2013-5-21,87.2,73.0,66.0,21.9,17.7,14.9,15,12,7,29.58,29.51,13,2,13,0.00